CW0018 Weather Reports


time (UTC)temp
C
wind
direction
speed
KPH
gust
KPH
rain 1hr
cm
rain 24hr
cm
rain mn
cm
humidity
%
barometer
mb
20190326181604 21 86 0.0 0.0 0.00 0.00 0.00 55 1024.5
20190326180057 21 80 1.6 0.0 0.00 0.00 0.00 55 1024.6
20190326174544 20 82 3.2 0.0 0.00 0.00 0.00 55 1025.0
20190326173035 20 80 1.6 0.0 0.00 0.00 0.00 56 1025.2
20190326171524 20 90 3.2 0.0 0.00 0.00 0.00 56 1025.4
20190326170028 19 78 1.6 0.0 0.00 0.00 0.00 58 1025.5
20190326164520 19 57 1.6 0.0 0.00 0.00 0.00 59 1025.6
20190326163002 18 68 1.6 0.0 0.00 0.00 0.00 58 1025.7
20190326161650 18 98 3.2 0.0 0.00 0.00 0.00 58 1025.7
20190326160211 18 86 1.6 0.0 0.00 0.00 0.00 61 1025.7
20190326154612 17 92 3.2 0.0 0.00 0.00 0.00 63 1025.7
20190326153107 17 59 1.6 0.0 0.00 0.00 0.00 63 1025.6
20190326151605 17 97 1.6 0.0 0.00 0.00 0.00 64 1025.4
20190326150122 16 69 1.6 0.0 0.00 0.00 0.00 66 1025.3
20190326144607 15 103 0.0 0.0 0.00 0.00 0.00 69 1025.2
20190326143106 15 69 0.0 0.0 0.00 0.00 0.00 69 1025.0
20190326141613 15 54 0.0 0.0 0.00 0.00 0.00 69 1025.0
20190326140023 13 41 0.0 0.0 0.00 0.00 0.00 56 1024.7
20190326134553 11 65 0.0 0.0 0.00 0.00 0.00 39 1024.4
20190326133030 11 65 0.0 0.0 0.00 0.00 0.00 18 1024.3
20190326131508 10 65 0.0 0.0 0.00 0.00 0.00 11 1023.8
20190326130209 8 65 0.0 0.0 0.00 0.00 0.00 17 1023.8
20190326124748 8 65 0.0 0.0 0.00 0.00 0.00 28 1023.4
20190326123135 8 65 0.0 0.0 0.00 0.00 0.00 31 1023.4
20190326121622 8 65 0.0 0.0 0.00 0.00 0.00 36 1023.3
20190326120113 8 65 0.0 0.0 0.00 0.00 0.00 35 1023.2
20190326114642 8 65 0.0 0.0 0.00 0.00 0.00 39 1022.9
20190326113125 8 65 0.0 0.0 0.00 0.00 0.00 46 1022.7
20190326111612 8 65 0.0 0.0 0.00 0.00 0.00 49 1022.6
20190326110052 8 65 0.0 0.0 0.00 0.00 0.00 50 1022.5
20190326104551 9 65 0.0 0.0 0.00 0.00 0.00 52 1022.2
20190326103059 10 65 0.0 0.0 0.00 0.00 0.00 57 1022.1
20190326101636 10 65 0.0 0.0 0.00 0.00 0.00 58 1022.0
20190326100111 10 65 0.0 0.0 0.00 0.00 0.00 61 1021.9
20190326094609 11 65 0.0 0.0 0.00 0.00 0.00 62 1021.9
20190326093049 11 65 0.0 0.0 0.00 0.00 0.00 62 1021.9
20190326091528 11 65 0.0 0.0 0.00 0.00 0.00 64 1021.8
20190326090025 12 65 0.0 0.0 0.00 0.00 0.00 66 1022.0
20190326084552 12 65 0.0 0.0 0.00 0.00 0.00 64 1021.9
20190326083045 12 65 0.0 0.0 0.00 0.00 0.00 62 1021.7
20190326081521 12 65 0.0 0.0 0.00 0.00 0.00 64 1021.6
20190326080030 12 65 0.0 0.0 0.00 0.00 0.00 68 1021.7
20190326074509 12 65 0.0 0.0 0.00 0.00 0.00 70 1021.8
20190326073014 13 65 0.0 0.0 0.00 0.00 0.00 70 1021.7
20190326071808 14 65 0.0 0.0 0.00 0.00 0.00 69 1021.6
20190326070255 15 65 0.0 0.0 0.00 0.00 0.00 69 1021.5
20190326064819 15 65 0.0 0.0 0.00 0.00 0.00 68 1021.3
20190326063146 15 65 0.0 0.0 0.00 0.00 0.00 68 1021.3
20190326061748 15 65 0.0 0.0 0.00 0.00 0.00 67 1021.2
20190326060117 16 69 0.0 0.0 0.00 0.00 0.00 67 1021.2
20190326054619 16 69 0.0 0.0 0.00 0.00 0.00 66 1021.1
20190326053116 16 69 0.0 0.0 0.00 0.00 0.00 65 1021.0
20190326051604 17 69 0.0 0.0 0.00 0.00 0.00 63 1021.1
20190326050130 17 67 0.0 0.0 0.00 0.00 0.00 61 1021.1
20190326044543 17 56 0.0 0.0 0.00 0.00 0.00 60 1020.8
20190326043116 18 59 0.0 0.0 0.00 0.00 0.00 59 1020.8
20190326041537 18 46 3.2 0.0 0.00 0.00 0.00 58 1020.6
20190326040044 18 50 0.0 0.0 0.00 0.00 0.00 56 1020.5
20190326034535 18 54 0.0 0.0 0.00 0.00 0.00 55 1020.2
20190326033012 19 33 0.0 0.0 0.00 0.00 0.00 54 1020.0
20190326031521 19 348 3.2 0.0 0.00 0.00 0.00 52 1019.9
20190326030001 19 55 0.0 0.0 0.00 0.00 0.00 52 1019.6
20190326024712 19 22 0.0 0.0 0.00 0.00 0.00 53 1019.3
20190326023127 19 51 0.0 0.0 0.00 0.00 0.00 53 1019.2
20190326021630 20 5 0.0 0.0 0.00 0.00 0.00 54 1019.1
20190326020156 20 22 0.0 0.0 0.00 0.00 0.00 54 1018.7
20190326014600 20 355 0.0 0.0 0.00 0.00 0.00 54 1018.7
20190326013112 20 17 0.0 0.0 0.00 0.00 0.00 53 1018.6
20190326011607 21 14 0.0 0.0 0.00 0.00 0.00 52 1018.3
20190326010048 22 26 0.0 0.0 0.00 0.00 0.00 50 1018.2
20190326004603 22 46 0.0 0.0 0.00 0.00 0.00 48 1017.9
20190326003028 23 38 0.0 0.0 0.00 0.00 0.00 46 1017.8
20190326001557 24 63 1.6 0.0 0.00 0.00 0.00 46 1017.6
20190326000037 25 41 1.6 0.0 0.00 0.00 0.00 48 1017.4
20190325234513 25 76 3.2 0.0 0.00 0.00 0.00 48 1017.2
20190325233001 25 40 6.4 0.0 0.00 0.00 0.00 49 1017.3
20190325231621 26 69 3.2 0.0 0.00 0.00 0.00 49 1017.1
20190325230128 26 44 4.8 0.0 0.00 0.00 0.00 50 1017.1
20190325224651 26 38 3.2 0.0 0.00 0.00 0.00 51 1016.9
20190325223127 26 72 8.0 0.0 0.00 0.00 0.00 52 1017.0
20190325221629 26 42 4.8 0.0 0.00 0.00 0.00 56 1016.9
20190325220105 26 15 3.2 0.0 0.00 0.00 0.00 57 1016.8
20190325214559 26 15 4.8 0.0 0.00 0.00 0.00 56 1017.0
20190325213047 26 309 3.2 0.0 0.00 0.00 0.00 60 1017.0
20190325211615 26 37 4.8 0.0 0.00 0.00 0.00 59 1017.0
20190325210104 26 298 6.4 0.0 0.00 0.00 0.00 59 1017.0
20190325204552 26 18 4.8 0.0 0.00 0.00 0.00 59 1017.1
20190325203016 27 339 3.2 0.0 0.00 0.00 0.00 59 1017.0
20190325201521 26 32 3.2 0.0 0.00 0.00 0.00 60 1017.0
20190325200022 27 303 3.2 0.0 0.00 0.00 0.00 60 1017.1
20190325194503 26 48 1.6 0.0 0.00 0.00 0.00 62 1017.2
20190325193141 26 30 1.6 0.0 0.00 0.00 0.00 63 1017.2
20190325191636 26 24 4.8 0.0 0.00 0.00 0.00 65 1017.5
20190325190153 26 25 3.2 0.0 0.00 0.00 0.00 65 1017.8
20190325184651 26 360 3.2 0.0 0.00 0.00 0.00 64 1017.8